DECAYED

ELECTRON KICK STAGE R/B, 61792 (Decayed)

Orbit data source: Space-Track

ELECTRON KICK STAGE R/B, 61792 was space debris in LEO originally from a launch on Tue, 05 Nov 2024 UTC launched from the Rocket Lab Launch Complex (RLLC). Debris objects in space refer to the collection of defunct objects orbiting the Earth. Examples of debris include non-operational satellites, rocket bodies, and fragments generated from explosions, collisions, or faulty payload assembly.

Not visible in the next 10 days
ELECTRON KICK STAGE R/B details
Identifier
61792, 2024-201A
Orbit
Decayed
Last TLE update1 month ago
Origin
Flag of USRocket Lab (US)
ManufacturerRocket Lab
MissionDecayed spacecraft
Bus & MotorKICK STAGE, CURIE
Mass~50 kg wet, ~50 kg dry
Launch date (UTC)
2024-11-05 (2 months ago)
Launch vehicleUnknown
Launch site
Rocket Lab Launch Complex (RLLC)
Object type
Payload
Rocket body
Debris
Shape & HBRUnknown
Radar Cross SectionMedium (>0.1 m² and <1 m²)

Expand to show TLE details & history

TLE from 1 month ago
0 ELECTRON KICK STAGE R/B
1 61792U 24201A   24334.49196430  .11752310  21736-5  78759-3 0  9999
2 61792  97.8944 241.8772 0055062 188.7122 171.3222 16.32746336  3772
Epoch: 2024-11-29T11:48Z
Definitive object data (Epoch: 2024-11-29T11:48:25.715Z)
Latitude-0.00007°
Longitude-4.08804°
Altitude224.134 km
Speed7.751 km/s
True Right ascension16h 07m 30s
True Declination0° 00' 00"
Sunlit
Object was in daylight at TLE epoch
Visualization observer readout
Observer readout values are unavailable because the object's trajectory could not be propagated. This is usually caused when the trajectory data is faulty or the object's orbit has decayed.
Visualization observer readout
Observer readout values are unavailable because the object's trajectory could not be propagated. This is usually caused when the trajectory data is faulty or the object's orbit has decayed.
Orbital elements
Apogee altitude218.131 km
Perigee altitude145.888 km
Semi-major axis6,560.146 km
Eccentricity0.0055062
Inclination97.8944°
RAAN241.8772°
Arg. of periapsis188.7122°
True anomaly171.41675°
Mean anomaly171.3222°
Eccentric anomaly171.36954°
Mean motion4.08482 °/min
BSTAR0.00078759
Orbital period88.13 mins
Loading maneuver chart data...
Loading historical data...
Loading historical data...
Loading historical data...
Loading historical data...
Loading historical data...
Loading historical data...
Loading historical data...
Other satellites on launch #201 in the year 2024 (2024-11-05 UTC)

ELECTRON KICK STAGE R/B Visibility forecast

Observer location: undefined°, undefined

This satellite is decayed
Span
Click to sort rows by Start time (UTC) header in descending order
Start Az.
Max El. time (UTC)
Max El. Az.
Max El.
End time (UTC)
End Az.
|